Weather History for KMRY - February, 2014

Change the Weather History Date:

Wednesday, February 19, 2014

  Actual Average Record
Temperature  
Mean Temperature 54 °F 53 °F  
Max Temperature 59 °F 61 °F 71 °F (2000)
Min Temperature 48 °F 45 °F 38 °F (2006)
Degree Days  
Heating Degree Days 11    
Month to date heating degree days 225  
Since 1 July heating degree days 1728  
Cooling Degree Days 0    
Month to date cooling degree days 0  
Year to date cooling degree days 2  
Growing Degree Days 4 (Base 50)    
Moisture  
Dew Point 48 °F    
Average Humidity 78    
Maximum Humidity 93    
Minimum Humidity 62    
Precipitation  
Precipitation T in - 0.48 in (2013)
Month to date precipitation 1.59  
Year to date precipitation 1.66  
Since 1 July precipitation 2.94  
Sea Level Pressure  
Sea Level Pressure 30.19 in    
Wind  
Wind Speed 6 mph (WSW)    
Max Wind Speed 16 mph    
Max Gust Speed 23 mph    
Visibility 10 miles    
Events      
T = Trace of Precipitation, MM = Missing Value Source: NWS Daily Summary

Daily Weather History Graph

Daily Weather History Graph

Search for Another Location

Airport or City:

Trip Planner

Search our weather history database for the weather conditions in past years. The results will help you decide how hot, cold, wet, or windy it might be!

Date:

Astronomy

Feb. 19, 2014 Rise Set
Actual Time 6:50 AM PST 5:52 PM PST
Civil Twilight 6:24 AM PST 6:18 PM PST
Nautical Twilight 5:54 AM PST 6:48 PM PST
Astronomical Twilight 5:24 AM PST 7:18 PM PST
Moon 10:41 PM PST (2/19) 9:08 AM PST (2/19)
Length of Visible Light 11h 54m
Length of Day
11h 01m
Waning Gibbous, 79% of the Moon is Illuminated
Feb 19
Waning Gibbous
Feb 22
Last Quarter
Mar 1
New
Mar 8
First Quarter
Mar 16
Full

Hourly Weather History & Observations

Time (PST) Temp. Dew Point Humidity Pressure Visibility Wind Dir Wind Speed Gust Speed Precip Events Conditions
12:46 AM 53.6 °F 51.8 °F 94% 30.14 in 10.0 mi West 13.8 mph 23.0 mph N/A   Mostly Cloudy
12:54 AM 54.0 °F 51.1 °F 90% 30.18 in 10.0 mi West 15.0 mph 23.0 mph N/A   Mostly Cloudy
1:54 AM 54.0 °F 51.1 °F 90% 30.21 in 10.0 mi Variable 5.8 mph - N/A   Overcast
2:54 AM 54.0 °F 52.0 °F 93% 30.21 in 10.0 mi West 4.6 mph - N/A   Overcast
3:54 AM 54.0 °F 51.1 °F 90% 30.19 in 10.0 mi Variable 3.5 mph - N/A   Overcast
4:54 AM 54.0 °F 50.0 °F 86% 30.19 in 10.0 mi Calm Calm - N/A   Overcast
5:54 AM 53.1 °F 48.0 °F 83% 30.19 in 10.0 mi Calm Calm - N/A   Overcast
6:44 AM 53.6 °F 48.2 °F 82% 30.17 in 10.0 mi WSW 4.6 mph - N/A   Overcast
6:54 AM 54.0 °F 50.0 °F 86% 30.21 in 10.0 mi WSW 4.6 mph - N/A   Overcast
7:16 AM 53.6 °F 50.0 °F 88% 30.17 in 10.0 mi Calm Calm - 0.00 in   Mostly Cloudy
7:29 AM 53.6 °F 50.0 °F 88% 30.18 in 10.0 mi Calm Calm - 0.00 in   Overcast
7:54 AM 54.0 °F 48.9 °F 83% 30.22 in 10.0 mi Calm Calm - 0.00 in   Overcast
8:01 AM 53.6 °F 48.2 °F 82% 30.18 in 10.0 mi Calm Calm - N/A   Overcast
8:26 AM 55.4 °F 51.8 °F 88% 30.18 in 10.0 mi SW 3.5 mph - N/A   Mostly Cloudy
8:54 AM 57.0 °F 52.0 °F 83% 30.21 in 10.0 mi WSW 3.5 mph - N/A   Mostly Cloudy
9:01 AM 57.2 °F 51.8 °F 82% 30.17 in 10.0 mi Calm Calm - N/A   Mostly Cloudy
9:54 AM 55.9 °F 51.1 °F 84% 30.22 in 10.0 mi West 8.1 mph - N/A   Overcast
10:54 AM 55.0 °F 48.9 °F 80% 30.23 in 10.0 mi West 11.5 mph - N/A   Overcast
11:05 AM 55.4 °F 48.2 °F 77% 30.19 in 10.0 mi WNW 8.1 mph - N/A   Overcast
11:29 AM 57.2 °F 48.2 °F 72% 30.18 in 10.0 mi West 5.8 mph - N/A   Overcast
11:54 AM 57.0 °F 50.0 °F 77% 30.21 in 10.0 mi West 8.1 mph - N/A   Mostly Cloudy
12:22 PM 57.2 °F 48.2 °F 72% 30.17 in 10.0 mi West 10.4 mph - N/A   Partly Cloudy
12:54 PM 59.0 °F 46.9 °F 64% 30.20 in 10.0 mi West 11.5 mph 20.7 mph N/A   Clear
1:54 PM 57.9 °F 46.0 °F 65% 30.17 in 10.0 mi West 12.7 mph - N/A   Clear
2:54 PM 57.9 °F 46.0 °F 65% 30.17 in 10.0 mi West 11.5 mph - N/A   Clear
3:54 PM 57.0 °F 45.0 °F 64% 30.17 in 10.0 mi WSW 10.4 mph - N/A   Clear
4:54 PM 55.9 °F 45.0 °F 67% 30.17 in 10.0 mi West 8.1 mph - N/A   Clear
5:54 PM 54.0 °F 44.1 °F 69% 30.18 in 10.0 mi SSW 6.9 mph - N/A   Clear
6:54 PM 53.1 °F 44.1 °F 71% 30.20 in 10.0 mi SW 5.8 mph - N/A   Clear
7:54 PM 53.1 °F 43.0 °F 69% 30.22 in 10.0 mi South 3.5 mph - N/A   Clear
8:54 PM 52.0 °F 43.0 °F 71% 30.23 in 10.0 mi South 5.8 mph - N/A   Clear
9:54 PM 51.1 °F 43.0 °F 74% 30.23 in 10.0 mi SSE 4.6 mph - N/A   Clear
10:54 PM 50.0 °F 44.1 °F 80% 30.23 in 10.0 mi South 3.5 mph - N/A   Clear
11:54 PM 48.9 °F 44.1 °F 83% 30.23 in 10.0 mi SSE 5.8 mph - N/A   Clear